User: anonymous   Login
Location: Brede
(50.9167°N, 0.6000°E)
Time: 03:51:02
(UTC+00:00)
Language:

NOSS 3-1 (C) - Orbit

View from above orbital plane
View from above orbital plane
View from above satellite
View from above satellite

Ground track
Ground track

The orbit data is extracted from the following two-line orbital elements,

1 26907U 01040C   20283.75658591 0.00000000  00000-0  00000-0 0    03
2 26907  63.4149 171.4856 0483094   1.4408 358.5592 13.41319693    07
Epoch (UTC): 09 October 2020 18:09:29
Eccentricity: 0.0483094
inclination: 63.4149°
perigee height: 743 km
apogee height: 1466 km
right ascension of ascending node: 171.4856°
argument of perigee: 1.4408°
revolutions per day: 13.41319693
mean anomaly at epoch: 358.5592°
orbit number at epoch: 0

The dashed part of the orbit path shows where the satellite is in the earth's shadow,  

DLR